CW2303 Weather Reports


Display with metric or nautical units.
time (UTC)temp
F
wind
direction
speed
MPH
gust
MPH
rain 1hr
in
rain 24hr
in
rain mn
in
humidity
%
barometer
mb
20260502230055 60 350 3.0 7.0 0.00 0.00 0.00 40 1019.5
20260502225544 60 342 3.0 7.0 0.00 0.00 0.00 43 1019.4
20260502225043 60 342 1.0 14.0 0.00 0.00 0.00 41 1019.4
20260502224604 60 22 4.0 14.0 0.00 0.00 0.00 40 1019.4
20260502224043 60 13 4.0 13.0 0.00 0.00 0.00 40 1019.4
20260502223543 60 19 4.0 10.0 0.00 0.00 0.00 43 1019.4
20260502223055 60 0 3.0 10.0 0.00 0.00 0.00 41 1019.4
20260502222543 60 10 4.0 10.0 0.00 0.00 0.00 40 1019.5
20260502222043 61 335 3.0 9.0 0.00 0.00 0.00 43 1019.4
20260502221551 60 269 3.0 9.0 0.00 0.00 0.00 40 1019.4
20260502221043 60 294 3.0 10.0 0.00 0.00 0.00 42 1019.4
20260502220545 60 289 3.0 10.0 0.00 0.00 0.00 40 1019.4
20260502220052 60 36 2.0 6.0 0.00 0.00 0.00 43 1019.4
20260502215543 60 301 2.0 10.0 0.00 0.00 0.00 41 1019.4
20260502215047 60 298 4.0 12.0 0.00 0.00 0.00 41 1019.5
20260502214551 61 258 7.0 12.0 0.00 0.00 0.00 39 1019.4
20260502214043 61 281 5.0 12.0 0.00 0.00 0.00 42 1019.4
20260502213543 60 284 6.0 11.0 0.00 0.00 0.00 46 1019.5
20260502213111 60 350 2.0 9.0 0.00 0.00 0.00 40 1019.5
20260502212544 60 307 4.0 12.0 0.00 0.00 0.00 43 1019.7
20260502212048 60 303 5.0 12.0 0.00 0.00 0.00 47 1019.6
20260502211629 60 282 6.0 12.0 0.00 0.00 0.00 38 1019.6
20260502211044 60 304 4.0 11.0 0.00 0.00 0.00 43 1019.5
20260502210545 60 284 4.0 10.0 0.00 0.00 0.00 40 1019.6
20260502210051 60 14 3.0 9.0 0.00 0.00 0.00 41 1019.5
20260502205543 60 287 3.0 7.0 0.00 0.00 0.00 40 1019.5
20260502205043 60 355 2.0 7.0 0.00 0.00 0.00 46 1019.7
20260502204556 60 286 3.0 12.0 0.00 0.00 0.00 44 1019.6
20260502204046 60 309 3.0 12.0 0.00 0.00 0.00 44 1019.8
20260502203543 60 293 5.0 12.0 0.00 0.00 0.00 43 1019.8
20260502203101 60 279 2.0 11.0 0.00 0.00 0.00 42 1019.9
20260502202541 60 37 2.0 9.0 0.00 0.00 0.00 43 1019.9
20260502202045 60 304 4.0 12.0 0.00 0.00 0.00 39 1020.0
20260502201555 60 315 2.0 12.0 0.00 0.00 0.00 44 1019.9
20260502201047 60 310 5.0 12.0 0.00 0.00 0.00 43 1020.1
20260502200544 60 274 3.0 9.0 0.00 0.00 0.00 48 1020.0
20260502200054 59 296 3.0 6.0 0.00 0.00 0.00 44 1020.0
20260502195544 59 295 2.0 8.0 0.00 0.00 0.00 43 1020.0
20260502195045 59 306 4.0 8.0 0.00 0.00 0.00 42 1020.0
20260502194606 59 22 2.0 12.0 0.00 0.00 0.00 50 1020.1
20260502194045 59 265 4.0 12.0 0.00 0.00 0.00 42 1020.1
20260502193550 60 272 4.0 11.0 0.00 0.00 0.00 49 1020.1
20260502193055 59 36 3.0 13.0 0.00 0.00 0.00 48 1020.1
20260502192545 58 16 6.0 13.0 0.00 0.00 0.00 42 1020.1
20260502192045 57 301 3.0 10.0 0.00 0.00 0.00 43 1020.1
20260502191601 58 299 3.0 10.0 0.00 0.00 0.00 44 1020.2
20260502191045 58 36 3.0 12.0 0.00 0.00 0.00 48 1020.2
20260502190545 58 31 1.0 12.0 0.00 0.00 0.00 44 1020.3
20260502190058 59 334 3.0 9.0 0.00 0.00 0.00 43 1020.3
20260502185545 59 288 5.0 9.0 0.00 0.00 0.00 41 1020.2
20260502185044 59 24 4.0 13.0 0.00 0.00 0.00 44 1020.2
20260502184559 58 306 5.0 13.0 0.00 0.00 0.00 42 1020.2
20260502184044 58 299 5.0 16.0 0.00 0.00 0.00 46 1020.2
20260502183545 58 16 6.0 16.0 0.00 0.00 0.00 44 1020.3
20260502183106 58 325 5.0 11.0 0.00 0.00 0.00 43 1020.3
20260502182542 58 317 4.0 11.0 0.00 0.00 0.00 44 1020.3
20260502182045 57 298 5.0 11.0 0.00 0.00 0.00 46 1020.4
20260502181556 58 10 2.0 10.0 0.00 0.00 0.00 47 1020.4
20260502181042 58 300 3.0 11.0 0.00 0.00 0.00 48 1020.5
20260502180545 57 341 6.0 11.0 0.00 0.00 0.00 43 1020.5
20260502164043 56 16 4.0 8.0 0.00 0.00 0.00 53 1020.7
20260502163547 56 322 2.0 11.0 0.00 0.00 0.00 51 1020.7
20260502163058 56 32 1.0 11.0 0.00 0.00 0.00 51 1020.6
20260502162544 56 293 1.0 11.0 0.00 0.00 0.00 55 1020.6
20260502162044 55 13 4.0 11.0 0.00 0.00 0.00 53 1020.7
20260502161559 55 272 2.0 9.0 0.00 0.00 0.00 59 1020.7
20260502161044 55 286 4.0 9.0 0.00 0.00 0.00 57 1020.7
20260502160544 55 328 2.0 10.0 0.00 0.00 0.00 55 1020.7
20260502152044 54 312 2.0 9.0 0.00 0.00 0.00 64 1020.6
20260502151609 54 331 4.0 10.0 0.00 0.00 0.00 62 1020.7
20260502151043 54 329 5.0 12.0 0.00 0.00 0.00 64 1020.6
20260502150546 54 310 2.0 12.0 0.00 0.00 0.00 63 1020.4
20260502130545 45 281 1.0 4.0 0.00 0.00 0.00 82 1019.7
20260502123545 42 0 0.0 1.0 0.00 0.00 0.00 86 1019.5
20260502123051 42 326 0.0 1.0 0.00 0.00 0.00 86 1019.5
20260502122546 41 0 0.0 0.0 0.00 0.00 0.00 87 1019.5
20260502122043 41 0 0.0 0.0 0.00 0.00 0.00 87 1019.4
20260502121552 40 0 0.0 0.0 0.00 0.00 0.00 87 1019.3
20260502121046 40 0 0.0 0.0 0.00 0.00 0.00 87 1019.3
20260502120543 40 0 0.0 0.0 0.00 0.00 0.00 87 1019.3
20260502115548 40 0 0.0 0.0 0.00 0.00 0.00 88 1019.1
20260502115043 40 0 0.0 0.0 0.00 0.00 0.00 88 1019.1
20260502114607 40 0 0.0 0.0 0.00 0.00 0.00 88 1019.0
20260502114043 39 0 0.0 0.0 0.00 0.00 0.00 89 1018.9
20260502113550 39 0 0.0 0.0 0.00 0.00 0.00 89 1018.9
20260502113057 39 0 0.0 0.0 0.00 0.00 0.00 88 1018.8
20260502112547 39 0 0.0 0.0 0.00 0.00 0.00 87 1018.9
20260502112043 39 0 0.0 0.0 0.00 0.00 0.00 87 1018.9
20260502111556 39 0 0.0 0.0 0.00 0.00 0.00 88 1018.8
20260502111047 39 0 0.0 0.0 0.00 0.00 0.00 88 1018.8
20260502110547 39 0 0.0 0.0 0.00 0.00 0.00 89 1018.7
20260502110054 39 0 0.0 0.0 0.00 0.00 0.00 89 1018.7
20260502105543 39 0 0.0 0.0 0.00 0.00 0.00 90 1018.7
20260502105041 38 0 0.0 0.0 0.00 0.00 0.00 90 1018.7
20260502104553 38 0 0.0 0.0 0.00 0.00 0.00 90 1018.7
20260502104041 38 0 0.0 0.0 0.00 0.00 0.00 89 1018.6
20260502103541 38 0 0.0 0.0 0.00 0.00 0.00 89 1018.6
20260502103054 38 0 0.0 0.0 0.00 0.00 0.00 89 1018.6
20260502102849 38 0 0.0 0.0 0.00 0.00 0.00 88 1018.4
20260502102042 39 0 0.0 0.0 0.00 0.00 0.00 88 1018.4
20260502101620 39 0 0.0 0.0 0.00 0.00 0.00 87 1018.4
20260502101044 39 0 0.0 0.0 0.00 0.00 0.00 87 1018.4
20260502100545 39 0 0.0 0.0 0.00 0.00 0.00 87 1018.3
20260502091043 40 0 0.0 0.0 0.00 0.00 0.00 83 1017.9
20260502090542 41 0 0.0 0.0 0.00 0.00 0.00 83 1017.7
20260502090108 41 0 0.0 0.0 0.00 0.00 0.00 83 1017.8
20260502080105 41 0 0.0 0.0 0.00 0.00 0.00 84 1017.7
20260502070644 42 0 0.0 1.0 0.00 0.00 0.00 81 1018.1
20260502070555 42 0 0.0 1.0 0.00 0.00 0.00 81 1018.1
20260502070107 43 167 0.0 1.0 0.00 0.00 0.00 82 1018.0
20260502065543 42 0 0.0 0.0 0.00 0.00 0.00 81 1018.1
20260502065043 42 0 0.0 2.0 0.00 0.00 0.00 83 1018.1
20260502064558 42 0 0.0 2.0 0.00 0.00 0.00 83 1018.2
20260502064043 42 27 0.0 2.0 0.00 0.00 0.00 83 1018.2
20260502063543 42 0 1.0 2.0 0.00 0.00 0.00 82 1018.2
20260502063058 43 190 0.0 0.0 0.00 0.00 0.00 82 1018.2
20260502062547 43 0 0.0 0.0 0.00 0.00 0.00 81 1018.1
20260502062042 43 0 0.0 0.0 0.00 0.00 0.00 81 1018.1
20260502061554 44 0 0.0 0.0 0.00 0.00 0.00 80 1018.2
20260502061044 44 0 0.0 0.0 0.00 0.00 0.00 79 1018.2
20260502060544 44 0 0.0 0.0 0.00 0.00 0.00 78 1018.1
20260502060055 44 0 0.0 0.0 0.00 0.00 0.00 78 1018.2
20260502055544 44 0 0.0 0.0 0.00 0.00 0.00 78 1018.2
20260502055044 44 0 0.0 0.0 0.00 0.00 0.00 77 1018.2
20260502054557 45 0 0.0 0.0 0.00 0.00 0.00 77 1018.2
20260502054044 45 0 0.0 0.0 0.00 0.00 0.00 76 1018.2
20260502053543 45 0 0.0 0.0 0.00 0.00 0.00 76 1018.2
20260502053055 45 0 0.0 0.0 0.00 0.00 0.00 75 1018.2
20260502052603 45 0 0.0 0.0 0.00 0.00 0.00 74 1018.2
20260502052124 46 0 0.0 0.0 0.00 0.00 0.00 74 1018.1
20260502051627 46 0 0.0 0.0 0.00 0.00 0.00 74 1018.1
20260502051048 46 0 0.0 0.0 0.00 0.00 0.00 73 1018.0
20260502050605 46 0 0.0 0.0 0.00 0.00 0.00 73 1018.1
20260502050056 46 0 0.0 0.0 0.00 0.00 0.00 74 1018.0
20260502045549 46 0 0.0 1.0 0.00 0.00 0.00 74 1018.1
20260502045042 46 0 0.0 1.0 0.00 0.00 0.00 74 1018.1
20260502044550 46 0 0.0 0.0 0.00 0.00 0.00 75 1018.1
20260502044043 46 0 0.0 0.0 0.00 0.00 0.00 73 1018.1
20260502043543 46 0 0.0 0.0 0.00 0.00 0.00 71 1018.0
20260502043103 47 0 0.0 0.0 0.00 0.00 0.00 72 1018.1
20260502042544 47 0 0.0 0.0 0.00 0.00 0.00 71 1018.1
20260502042043 47 0 0.0 0.0 0.00 0.00 0.00 70 1018.2
20260502041553 46 0 0.0 0.0 0.00 0.00 0.00 70 1018.2
20260502041043 47 0 0.0 0.0 0.00 0.00 0.00 70 1018.2
20260502040543 47 0 0.0 0.0 0.00 0.00 0.00 70 1018.3
20260502035543 47 0 0.0 0.0 0.00 0.00 0.00 69 1018.4
20260502035044 47 0 0.0 0.0 0.00 0.00 0.00 68 1018.5
20260502034556 47 0 0.0 0.0 0.00 0.00 0.00 68 1018.5
20260502034048 47 0 0.0 0.0 0.00 0.00 0.00 67 1018.5
20260502033543 47 0 0.0 0.0 0.00 0.00 0.00 67 1018.6
20260502033058 47 0 0.0 1.0 0.00 0.00 0.00 67 1018.6
20260502032543 47 0 0.0 1.0 0.00 0.00 0.00 67 1018.6
20260502032045 47 0 0.0 0.0 0.00 0.00 0.00 66 1018.7
20260502031558 47 0 0.0 0.0 0.00 0.00 0.00 65 1018.6
20260502031043 48 0 0.0 0.0 0.00 0.00 0.00 67 1018.7
20260502030543 48 0 0.0 0.0 0.00 0.00 0.00 66 1018.6
20260502030104 48 0 0.0 0.0 0.00 0.00 0.00 67 1018.7
20260502025547 48 0 0.0 0.0 0.00 0.00 0.00 68 1018.7
20260502025044 48 0 0.0 0.0 0.00 0.00 0.00 65 1018.6
20260502024550 48 0 0.0 0.0 0.00 0.00 0.00 66 1018.5
20260502024047 48 0 0.0 0.0 0.00 0.00 0.00 67 1018.5
20260502023547 48 0 0.0 0.0 0.00 0.00 0.00 68 1018.5
20260502023107 48 0 0.0 0.0 0.00 0.00 0.00 70 1018.4
20260502022543 48 0 0.0 0.0 0.00 0.00 0.00 66 1018.4
20260502022045 49 0 0.0 0.0 0.00 0.00 0.00 64 1018.4
20260502021550 49 0 0.0 0.0 0.00 0.00 0.00 61 1018.3
20260502021044 49 0 0.0 0.0 0.00 0.00 0.00 60 1018.3
20260502020544 49 0 0.0 0.0 0.00 0.00 0.00 60 1018.2
20260502020105 50 0 0.0 0.0 0.00 0.00 0.00 59 1018.2
20260502015544 50 0 0.0 0.0 0.00 0.00 0.00 62 1018.1
20260502015045 50 0 0.0 0.0 0.00 0.00 0.00 57 1018.1
20260502014554 51 0 0.0 0.0 0.00 0.00 0.00 57 1018.0
20260502014045 52 0 0.0 0.0 0.00 0.00 0.00 51 1017.9
20260502013542 52 0 0.0 0.0 0.00 0.00 0.00 51 1017.8
20260502013102 52 0 0.0 0.0 0.00 0.00 0.00 49 1017.8
20260502012542 53 0 0.0 0.0 0.00 0.00 0.00 49 1017.7
20260502012043 53 0 0.0 0.0 0.00 0.00 0.00 49 1017.7
20260502011559 53 0 0.0 0.0 0.00 0.00 0.00 48 1017.6
20260502011043 54 0 0.0 0.0 0.00 0.00 0.00 47 1017.5
20260502010542 55 0 0.0 0.0 0.00 0.00 0.00 48 1017.5
20260502010053 55 0 0.0 0.0 0.00 0.00 0.00 45 1017.3
20260502005547 56 0 0.0 1.0 0.00 0.00 0.00 43 1017.3
20260502005046 56 0 0.0 1.0 0.00 0.00 0.00 42 1017.2
20260502004611 57 0 0.0 1.0 0.00 0.00 0.00 42 1017.2
20260502004043 57 325 0.0 3.0 0.00 0.00 0.00 40 1017.0
20260502003541 57 0 0.0 3.0 0.00 0.00 0.00 41 1017.0
20260502003057 58 294 1.0 5.0 0.00 0.00 0.00 39 1016.9
20260502002545 58 324 1.0 6.0 0.00 0.00 0.00 41 1016.8
20260502002046 58 323 0.0 6.0 0.00 0.00 0.00 39 1016.8
20260502001609 59 352 2.0 5.0 0.00 0.00 0.00 36 1016.7
20260502001045 59 311 2.0 5.0 0.00 0.00 0.00 37 1016.7
20260502000545 59 0 1.0 4.0 0.00 0.00 0.00 38 1016.7
20260502000101 59 38 1.0 11.0 0.00 0.00 0.00 35 1016.8
20260501235545 60 302 2.0 11.0 0.00 0.00 0.00 36 1016.7
20260501235046 60 11 5.0 11.0 0.00 0.00 0.00 37 1016.7
20260501234606 60 334 3.0 8.0 0.00 0.00 0.00 35 1016.8
20260501234046 60 9 3.0 11.0 0.00 0.00 0.00 33 1016.8
20260501233545 60 323 5.0 11.0 0.00 0.00 0.00 34 1016.9
20260501233057 60 302 4.0 14.0 0.00 0.00 0.00 34 1016.9
20260501232548 60 321 8.0 14.0 0.00 0.00 0.00 34 1016.8
20260501232041 60 327 7.0 12.0 0.00 0.00 0.00 32 1016.7
20260501231555 60 313 5.0 12.0 0.00 0.00 0.00 35 1016.6
20260501231042 60 10 3.0 9.0 0.00 0.00 0.00 35 1016.7
20260501230546 60 15 4.0 10.0 0.00 0.00 0.00 36 1016.7